Home   Weather   Hürth   Past weeks
Flag for Germany

Past Weather in Hürth, North Rhine-Westphalia, Germany — Yesterday and Last 2 Weeks

Now
61 °F

Partly sunny.


Feels Like: 61 °F
Forecast: 76 / 53 °F
Wind: 7 mph from Northwest

Location: Noervenich

Current Time: Jul 16, 2019 at 1:41:42 pm

Latest Report: Jul 16, 2019 at 12:20 pm


Visibility: N/A

Pressure: 30.12 "Hg

Humidity: 63%

Dew Point: 48 °F

Location of HürthLocation

Past Weather in Hürth — Graph

°F

Hürth Temperature Yesterday

Maximum temperature yesterday: 63 °F (at 8:20 pm)
Minimum temperature yesterday: 54 °F (at 5:20 am)
Average temperature yesterday: 59 °F

High & Low Weather Summary for the Past Weeks

 TemperatureHumidityPressure
High84 °F (Jul 6, 4:20 pm)94% (Jul 12, 10:20 pm)30.27 "Hg (Jul 12, 10:20 pm)
Low48 °F (Jul 9, 3:20 am)21% (Jul 10, 3:20 pm)29.80 "Hg (Jul 6, 4:20 pm)
Average63 °F61%30.07 "Hg
* Reported Jul 1 12:20 pm — Jul 16 12:20 pm, Hürth. Weather by CustomWeather, © 2019

Note: Actual official high and low records may vary slightly from our data, if they occured in-between our weather recording intervals... More about our weather records

Advertising

Hürth Weather History for the Previous 24 Hours

Scroll right to see more
 ConditionsComfort  
Time TempWeatherWind HumidityBarometerVisibility
12:20 pm
Tue, Jul 16
61 °FPartly sunny.7 mph63%30.12 "HgN/A
11:20 am59 °FPartly sunny.7 mph68%30.12 "HgN/A
10:20 am59 °FPartly sunny.7 mph68%30.12 "HgN/A
9:20 am57 °FPartly sunny.5 mph77%30.12 "HgN/A
8:20 am57 °FPartly sunny.5 mph77%30.12 "HgN/A
7:20 am55 °FPartly sunny.6 mph82%30.09 "HgN/A
6:20 am55 °FPartly sunny.3 mph77%30.09 "HgN/A
5:20 am54 °FPassing clouds.5 mph82%30.09 "HgN/A
4:20 am54 °FPassing clouds.3 mph82%30.09 "HgN/A
3:20 am55 °FPassing clouds.5 mph77%30.09 "HgN/A
2:20 am59 °FPassing clouds.6 mph77%30.12 "HgN/A
1:20 am59 °FPassing clouds.3 mph72%30.09 "HgN/A
12:20 am59 °FPassing clouds.7 mph72%30.09 "HgN/A
11:20 pm
Mon, Jul 15
59 °FPassing clouds.7 mph68%30.09 "HgN/A
10:20 pm59 °FPassing clouds.3 mph68%30.09 "HgN/A
9:20 pm63 °FPartly sunny.7 mph56%30.09 "HgN/A
8:20 pm63 °FPartly sunny.7 mph64%30.09 "HgN/A
7:20 pm61 °FPartly sunny.6 mph68%30.09 "HgN/A
6:20 pm61 °FPartly sunny.7 mph68%30.12 "HgN/A
5:20 pm61 °FBroken clouds.7 mph68%30.12 "HgN/A
4:20 pm61 °FBroken clouds.7 mph68%30.12 "HgN/A
3:20 pm61 °FBroken clouds.7 mph63%30.12 "HgN/A
2:20 pm61 °FBroken clouds.6 mph63%30.12 "HgN/A
1:20 pm61 °FMostly cloudy.8 mph63%30.12 "HgN/A
Weather by CustomWeather, © 2019

See weather overview

LIVE PARTIAL LUNAR ECLIPSE – Watch the eclipse as it happens